Lid_Strength_Index
17 17 16 16 16 16 16 16 16 16 16 16 16 16 16 16 17 17 18 17 18 18 18 18 18 18 18 18 18 18 18 17
16 16 16 16 16 16 16 17 16 16 17 17 17 16 17 17 17 18 18 18 18 18 18 18 18 18 18 18 18 18 17 17
16 16 16 16 17 17 16 17 17 17 17 17 17 17 17 17 18 18 18 18 18 18 18 18 18 18 18 18 18 18 17 16
16 16 16 16 16 17 17 17 17 17 17 18 18 18 18 18 18 18 18 18 18 18 18 18 18 18 18 17 17 16 16 15
16 16 16 16 16 17 17 17 17 17 17 17 18 18 18 18 18 18 18 19 19 18 18 18 18 18 17 17 16 16 15 14
15 16 16 16 16 17 17 17 17 17 17 17 17 18 18 18 18 18 18 18 18 18 18 18 18 17 17 16 16 15 15 14
14 15 16 16 16 16 17 16 16 17 17 17 17 17 17 17 17 17 18 18 18 18 19 19 17 15 13 15 15 14 14 14
14 15 15 16 15 16 16 16 16 16 16 16 16 16 16 17 17 18 17 18 19 19 18 18 18 13 12 12 13 14 14 14
13 14 15 15 15 15 16 16 16 16 16 16 16 16 17 17 17 17 18 18 19 19 18 18 17 12 11 11 13 14 14 14
13 13 14 15 15 15 16 16 16 16 16 16 15 16 17 16 17 17 18 19 18 18 18 18 17 11 10 11 14 14 14 13
13 13 13 14 14 15 16 16 16 16 16 15 15 15 15 15 17 18 18 17 17 17 17 17 18 12 10 11 13 17 14 13
13 12 12 14 14 15 16 16 16 16 16 16 15 15 15 16 18 19 18 18 18 17 17 17 17 17 11 10 12 14 15 14
15 15 16 15 15 16 16 16 17 16 17 17 17 16 17 17 20 19 18 17 18 19 19 18 17 15 12 10 9 9 14 14
15 16 17 17 15 16 17 17 18 18 18 19 19 18 18 18 19 18 18 17 18 18 18 18 17 16 11 10 9 8 9 10
18 18 19 20 19 19 18 19 19 20 21 21 19 20 20 17 17 17 18 18 18 19 19 21 18 16 15 14 14 10 9 9
18 19 20 21 21 22 20 19 19 20 20 20 20 19 20 20 20 19 20 18 22 22 21 22 20 17 13 15 17 17 13 12
21 20 22 21 22 22 21 19 18 19 19 20 20 22 21 21 21 14 14 12 11 11 16 18 12 10 9 8 8 7 6 10
19 19 19 20 23 26 24 20 20 20 20 21 20 21 21 22 21 22 19 11 10 9 9 8 8 8 7 7 6 6 6 8
20 21 21 23 26 27 26 24 25 24 21 20 20 21 22 22 22 22 22 23 20 15 13 12 11 10 9 9 8 11 11 14
21 23 24 24 28 28 25 22 22 22 22 23 23 23 22 22 22 23 23 22 23 25 19 18 14 13 12 12 22 23 19 17